Weather History for PASY - December, 2013

Change the Weather History Date:

Wednesday, December 18, 2013

  Actual Average Record
Temperature  
Mean Temperature 35 °F -  
Max Temperature 37 °F 34 °F 44 °F (2003)
Min Temperature 33 °F 28 °F 19 °F (1969)
Degree Days  
Heating Degree Days 30    
Moisture  
Dew Point 28 °F    
Average Humidity 74    
Maximum Humidity 87    
Minimum Humidity 53    
Precipitation  
Precipitation 0.00 in - - ()
Sea Level Pressure  
Sea Level Pressure 29.42 in    
Wind  
Wind Speed 36 mph (NNE)    
Max Wind Speed 41 mph    
Max Gust Speed 53 mph    
Visibility 10 miles    
Events Snow    
Averages and records for this station are not official NWS values.
T = Trace of Precipitation, MM = Missing Value Source: NWS Daily Summary

Daily Weather History Graph

Daily Weather History Graph

Search for Another Location

Airport or City:

Trip Planner

Search our weather history database for the weather conditions in past years. The results will help you decide how hot, cold, wet, or windy it might be!

Date:

Astronomy

Dec. 17, 2013 Rise Set
Actual Time 10:31 AM HST 6:08 PM HST
Civil Twilight 9:49 AM HST 6:50 PM HST
Nautical Twilight 9:04 AM HST 7:35 PM HST
Astronomical Twilight 8:22 AM HST 8:17 PM HST
Moon 8:08 PM HST (12/18) 11:09 AM HST (12/18)
Length of Visible Light 9h 01m
Length of Day
7h 37m
Full, 98% of the Moon is Illuminated
Dec 18
Full
Dec 25
Last Quarter
Jan 1
New
Jan 7
First Quarter
Jan 15
Full

Hourly Weather History & Observations

Time (HST) Temp. Windchill Dew Point Humidity Pressure Visibility Wind Dir Wind Speed Gust Speed Precip Events Conditions
12:56 AM 35.1 °F 20.4 °F 30.0 °F 82% 29.46 in 9.0 mi NE 38.0 mph 51.8 mph N/A Snow Light Snow
1:56 AM 36.0 °F 22.0 °F 28.9 °F 76% 29.44 in 10.0 mi NE 35.7 mph 46.0 mph N/A   Overcast
2:04 AM 35.6 °F 21.1 °F 30.2 °F 81% 29.43 in 10.0 mi NE 38.0 mph 47.2 mph N/A   Overcast
2:56 AM 36.0 °F 21.3 °F 28.9 °F 76% 29.42 in 10.0 mi NE 40.3 mph 49.5 mph N/A   Overcast
3:35 AM 35.6 °F 22.1 °F 30.2 °F 81% 29.40 in 10.0 mi NNE 32.2 mph 47.2 mph N/A   Overcast
3:56 AM 36.0 °F 22.2 °F 30.0 °F 79% 29.40 in 10.0 mi NE 34.5 mph 41.4 mph N/A   Overcast
4:10 AM 35.6 °F 21.0 °F 30.2 °F 81% 29.40 in 10.0 mi NE 39.1 mph 46.0 mph N/A   Overcast
4:18 AM 35.6 °F 21.1 °F 30.2 °F 81% 29.39 in 10.0 mi NNE 38.0 mph 46.0 mph N/A   Overcast
4:56 AM 35.1 °F 20.2 °F 28.9 °F 78% 29.39 in 10.0 mi NNE 39.1 mph 48.3 mph N/A Snow Light Snow
5:52 AM 35.6 °F 21.7 °F 30.2 °F 81% 29.39 in 6.2 mi NE 34.5 mph 47.2 mph N/A Snow Light Snow
5:56 AM 35.1 °F 20.4 °F 30.0 °F 82% 29.39 in 9.0 mi NNE 38.0 mph 47.2 mph N/A Snow Light Snow
6:07 AM 35.6 °F 21.1 °F 30.2 °F 81% 29.39 in 10.0 mi NNE 38.0 mph 48.3 mph N/A   Overcast
6:56 AM 35.1 °F 20.2 °F 28.9 °F 78% 29.38 in 10.0 mi NE 39.1 mph 49.5 mph N/A   Overcast
7:03 AM 35.6 °F 20.8 °F 28.4 °F 75% 29.38 in 10.0 mi NNE 40.3 mph 49.5 mph N/A   Overcast
7:35 AM 35.6 °F 20.6 °F 28.4 °F 75% 29.38 in 10.0 mi NE 41.4 mph 47.2 mph N/A   Overcast
7:45 AM 33.8 °F 18.1 °F 28.4 °F 81% 29.38 in 6.2 mi NNE 41.4 mph 47.2 mph N/A Snow Light Snow
7:56 AM 35.1 °F 20.4 °F 28.9 °F 78% 29.38 in 9.0 mi NE 38.0 mph 46.0 mph N/A   Overcast
8:44 AM 33.8 °F 19.2 °F 28.4 °F 81% 29.37 in 6.0 mi NNE 34.5 mph 47.2 mph N/A Snow Light Snow
8:56 AM 34.0 °F 19.9 °F 30.0 °F 85% 29.38 in 5.0 mi NNE 32.2 mph 49.5 mph N/A Snow Light Snow
9:26 AM 33.8 °F 18.1 °F 30.2 °F 87% 29.38 in 10.0 mi NNE 41.4 mph 48.3 mph N/A   Overcast
9:56 AM 35.1 °F 20.6 °F 28.9 °F 78% 29.39 in 10.0 mi NNE 36.8 mph 48.3 mph N/A   Overcast
10:56 AM 35.1 °F 21.0 °F 28.0 °F 76% 29.39 in 10.0 mi NNE 34.5 mph 48.3 mph N/A   Overcast
11:56 AM 35.1 °F 21.0 °F 27.0 °F 72% 29.40 in 9.0 mi NNE 34.5 mph 52.9 mph N/A Snow Light Snow
12:56 PM 35.1 °F 21.6 °F 28.0 °F 76% 29.40 in 10.0 mi NNE 31.1 mph 44.9 mph N/A   Overcast
1:56 PM 36.0 °F 22.4 °F 28.0 °F 73% 29.39 in 10.0 mi NNE 33.4 mph 41.4 mph N/A   Overcast
2:56 PM 36.0 °F 22.4 °F 28.0 °F 73% 29.39 in 9.0 mi NNE 33.4 mph 42.6 mph N/A   Overcast
3:56 PM 36.0 °F 22.4 °F 26.1 °F 67% 29.39 in 10.0 mi NNE 33.4 mph 44.9 mph N/A   Overcast
4:56 PM 36.0 °F 22.4 °F 27.0 °F 70% 29.41 in 10.0 mi NNE 33.4 mph 40.3 mph N/A   Overcast
5:56 PM 36.0 °F 22.0 °F 27.0 °F 70% 29.42 in 10.0 mi NNE 35.7 mph 41.4 mph N/A   Overcast
6:56 PM 36.0 °F 23.2 °F 28.0 °F 73% 29.44 in 10.0 mi NNE 28.8 mph 40.3 mph N/A   Overcast
7:40 PM 35.6 °F 21.9 °F 26.6 °F 70% 29.45 in 10.0 mi NNE 33.4 mph 42.6 mph N/A   Overcast
7:56 PM 36.0 °F 22.0 °F 25.0 °F 64% 29.45 in 10.0 mi NNE 35.7 mph 43.7 mph N/A   Overcast
8:56 PM 36.0 °F 22.2 °F 26.1 °F 67% 29.46 in 10.0 mi NNE 34.5 mph 39.1 mph N/A   Overcast
9:10 PM 35.6 °F 22.5 °F 26.6 °F 70% 29.46 in 10.0 mi North 29.9 mph 41.4 mph N/A   Overcast
9:56 PM 36.0 °F 22.6 °F 26.1 °F 67% 29.47 in 10.0 mi North 32.2 mph 39.1 mph N/A   Overcast
10:13 PM 35.6 °F 21.5 °F 24.8 °F 65% 29.47 in 10.0 mi North 35.7 mph 43.7 mph N/A   Overcast
10:56 PM 36.0 °F 22.2 °F 26.1 °F 67% 29.47 in 10.0 mi NNE 34.5 mph 40.3 mph N/A   Overcast
11:20 PM 35.6 °F 22.5 °F 26.6 °F 70% 29.47 in 10.0 mi NNE 29.9 mph 39.1 mph N/A   Overcast
11:27 PM 35.6 °F 23.2 °F 24.8 °F 65% 29.48 in 10.0 mi NNE 26.5 mph 40.3 mph N/A   Overcast
11:56 PM 36.0 °F 22.6 °F 25.0 °F 64% 29.49 in 10.0 mi North 32.2 mph 39.1 mph N/A   Overcast